Houghton, MI

4:33 AM EDT on March 29, 2017 (GMT -0400)
Houghton County Memorial

Weather History for KCMX - November, 2012

Change the Weather History Date:

Sunday, November 25, 2012

  Actual Average Record
Temperature  
Mean Temperature 23 °F -  
Max Temperature 27 °F 33 °F 56 °F (1984)
Min Temperature 19 °F 22 °F 4 °F (1985)
Degree Days  
Heating Degree Days 42    
Moisture  
Dew Point 19 °F    
Average Humidity 84    
Maximum Humidity 100    
Minimum Humidity 63    
Precipitation  
Precipitation 0.09 in - - ()
Sea Level Pressure  
Sea Level Pressure 29.78 in    
Wind  
Wind Speed 10 mph (West)    
Max Wind Speed 29 mph    
Max Gust Speed 38 mph    
Visibility 5 miles    
Events Fog , Snow    
Averages and records for this station are not official NWS values.
T = Trace of Precipitation, MM = Missing Value Source: NWS Daily Summary

Daily Weather History Graph

Daily Weather History Graph

Search for Another Location

Airport or City:

Trip Planner

Search our weather history database for the weather conditions in past years. The results will help you decide how hot, cold, wet, or windy it might be!

Date:

Astronomy

Nov. 25, 2012 Rise Set
Actual Time 8:12 AM EST 5:09 PM EST
Civil Twilight 7:38 AM EST 5:43 PM EST
Nautical Twilight 7:00 AM EST 6:21 PM EST
Astronomical Twilight 6:23 AM EST 6:58 PM EST
Moon 3:32 PM EST (11/25) 5:18 AM EST (11/25)
Length of Visible Light 10h 05m
Length of Day
8h 56m
Waxing Gibbous, 93% of the Moon is Illuminated
Nov 25
Waxing Gibbous
Nov 28
Full
Dec 6
Last Quarter
Dec 13
New
Dec 20
First Quarter

Hourly Weather History & Observations

Time (EST) Temp. Windchill Dew Point Humidity Pressure Visibility Wind Dir Wind Speed Gust Speed Precip Events Conditions
12:53 AM 21.0 °F 13.4 °F 19.0 °F 92% 29.85 in 1.5 mi South 5.8 mph - 0.01 in Snow Light Snow
1:30 AM 21.2 °F 13.6 °F 19.4 °F 93% 29.78 in 2.5 mi SSW 5.8 mph - 0.00 in Snow Light Snow
1:37 AM 21.2 °F 12.6 °F 19.4 °F 93% 29.77 in 3.0 mi SSW 6.9 mph - 0.00 in Snow Light Snow
1:53 AM 21.0 °F 10.6 °F 19.0 °F 92% 29.81 in 1.5 mi South 9.2 mph - 0.00 in Snow Light Snow
2:30 AM 21.2 °F 14.9 °F 19.4 °F 93% 29.75 in 2.0 mi SW 4.6 mph - 0.01 in Snow Light Snow
2:36 AM 21.2 °F 14.9 °F 19.4 °F 93% 29.75 in 1.8 mi SSW 4.6 mph - 0.01 in Snow Light Snow
2:53 AM 21.0 °F 16.2 °F 19.0 °F 92% 29.80 in 2.0 mi SW 3.5 mph - 0.01 in Snow Light Snow
3:09 AM 21.2 °F 16.4 °F 19.4 °F 93% 29.74 in 3.0 mi SW 3.5 mph - 0.00 in Snow Light Snow
3:53 AM 19.9 °F 13.4 °F 19.0 °F 96% 29.78 in 8.0 mi SSW 4.6 mph - 0.00 in   Overcast
4:46 AM 21.2 °F 16.4 °F 19.4 °F 93% 29.70 in 9.0 mi SW 3.5 mph - N/A   Overcast
4:53 AM 21.0 °F 14.6 °F 19.0 °F 92% 29.75 in 9.0 mi SSW 4.6 mph - N/A   Overcast
5:11 AM 21.2 °F - 19.4 °F 93% 29.70 in 10.0 mi Calm Calm - N/A   Overcast
5:53 AM 21.0 °F - 19.0 °F 92% 29.75 in 10.0 mi Calm Calm - N/A   Overcast
6:23 AM 21.2 °F - 19.4 °F 93% 29.69 in 9.0 mi Calm Calm - N/A   Overcast
6:40 AM 21.2 °F 14.9 °F 21.2 °F 100% 29.68 in 6.0 mi South 4.6 mph - 0.00 in   Overcast
6:53 AM 23.0 °F 18.4 °F 21.0 °F 92% 29.74 in 5.0 mi SSW 3.5 mph - 0.00 in Snow Light Snow
7:12 AM 23.0 °F 15.8 °F 21.2 °F 93% 29.68 in 2.5 mi SSW 5.8 mph - 0.01 in Snow Light Snow
7:44 AM 24.8 °F 19.1 °F 23.0 °F 93% 29.68 in 3.0 mi SW 4.6 mph - 0.01 in Snow Light Snow
7:53 AM 24.1 °F 18.2 °F 23.0 °F 96% 29.73 in 5.0 mi WSW 4.6 mph - 0.01 in   Overcast
8:12 AM 26.6 °F 19.1 °F 24.8 °F 93% 29.68 in 8.0 mi WSW 6.9 mph - N/A   Overcast
8:21 AM 26.6 °F 17.5 °F 24.8 °F 93% 29.68 in 9.0 mi West 9.2 mph - N/A   Overcast
8:53 AM 27.0 °F 16.1 °F 23.0 °F 85% 29.74 in 10.0 mi West 12.7 mph - N/A   Overcast
9:53 AM 27.0 °F 15.6 °F 21.9 °F 81% 29.75 in 7.0 mi WNW 13.8 mph - 0.00 in Snow Light Snow
10:53 AM 27.0 °F 16.7 °F 21.9 °F 81% 29.75 in 8.0 mi WNW 11.5 mph - 0.00 in Snow Light Snow
11:53 AM 27.0 °F 13.2 °F 21.0 °F 78% 29.76 in 9.0 mi WNW 20.7 mph - 0.00 in   Overcast
12:53 PM 27.0 °F 13.9 °F 21.0 °F 78% 29.77 in 6.0 mi WNW 18.4 mph 28.8 mph 0.00 in Snow Light Snow
1:51 PM 26.6 °F 13.1 °F 21.2 °F 80% 29.72 in 1.8 mi WNW 19.6 mph 26.5 mph 0.00 in Snow Light Snow
1:52 PM 26.1 °F 12.0 °F 21.9 °F 84% 29.77 in 1.8 mi WNW 20.7 mph - 0.01 in Snow Light Snow
2:06 PM 26.6 °F 13.1 °F 23.0 °F 86% 29.72 in 0.8 mi WNW 19.6 mph - 0.00 in Snow Light Snow
2:41 PM 26.6 °F 13.1 °F 23.0 °F 86% 29.72 in 0.8 mi WNW 19.6 mph 29.9 mph 0.00 in Snow Light Snow
2:53 PM 26.1 °F 12.0 °F 23.0 °F 88% 29.78 in 0.5 mi West 20.7 mph - 0.00 in Fog , Snow Snow
3:04 PM 26.6 °F 12.7 °F 23.0 °F 86% 29.73 in 0.2 mi WNW 20.7 mph - 0.01 in Fog , Snow Snow
3:19 PM 26.6 °F 12.7 °F 24.8 °F 93% 29.73 in 0.2 mi WNW 20.7 mph 27.6 mph 0.01 in Fog , Snow Snow
3:53 PM 24.1 °F 9.4 °F 21.9 °F 91% 29.81 in 0.2 mi NW 20.7 mph 29.9 mph 0.03 in Fog , Snow Snow
4:20 PM 24.8 °F 9.6 °F 21.2 °F 86% 29.77 in 0.5 mi NW 23.0 mph - 0.01 in Fog , Snow Snow
4:40 PM 23.0 °F 7.6 °F 19.4 °F 86% 29.78 in 0.8 mi NW 21.9 mph 27.6 mph 0.01 in Snow Light Snow
4:53 PM 23.0 °F 8.7 °F 19.0 °F 85% 29.84 in 1.0 mi NW 18.4 mph 32.2 mph 0.01 in Snow Light Snow
5:09 PM 23.0 °F 5.7 °F 15.8 °F 74% 29.79 in 0.8 mi NW 28.8 mph 38.0 mph 0.00 in   Overcast
5:17 PM 23.0 °F 5.7 °F 15.8 °F 74% 29.80 in 1.5 mi WNW 28.8 mph 38.0 mph 0.01 in Snow Blowing Snow
5:32 PM 23.0 °F 6.6 °F 14.0 °F 68% 29.80 in 3.0 mi WNW 25.3 mph 34.5 mph 0.01 in   Overcast
5:53 PM 23.0 °F 7.2 °F 15.1 °F 72% 29.86 in 2.5 mi WNW 23.0 mph 34.5 mph 0.01 in Snow Light Snow
6:12 PM 23.0 °F 6.9 °F 14.0 °F 68% 29.82 in 3.0 mi NW 24.2 mph 31.1 mph 0.00 in Snow Light Snow
6:53 PM 23.0 °F 7.2 °F 14.0 °F 68% 29.90 in 7.0 mi NNW 23.0 mph 29.9 mph 0.00 in Snow Light Snow
7:53 PM 23.0 °F 10.6 °F 12.0 °F 63% 29.92 in 9.0 mi NW 13.8 mph 23.0 mph 0.00 in   Overcast
8:53 PM 23.0 °F 11.7 °F 12.0 °F 63% 29.94 in 10.0 mi NW 11.5 mph - 0.00 in   Overcast
9:53 PM 21.9 °F 10.4 °F 12.9 °F 68% 29.95 in 8.0 mi NNW 11.5 mph - 0.00 in Snow Light Snow
10:45 PM 21.2 °F 9.5 °F 12.2 °F 68% 29.91 in 10.0 mi NNW 11.5 mph - 0.00 in   Overcast
10:53 PM 21.9 °F 10.4 °F 12.0 °F 66% 29.97 in 10.0 mi NNW 11.5 mph - 0.00 in   Overcast
11:53 PM 21.0 °F 8.6 °F 12.0 °F 68% 29.99 in 10.0 mi NNW 12.7 mph - N/A   Overcast